User: anonymous   Login
Location: Unspecified
(0.0000°N, 0.0000°E)
Time: 12:47:58
(UTC+00:00)
Language:

Kopernikus 2 - Orbit

View from above orbital plane
View from above orbital plane
View from above satellite
View from above satellite

Ground track
Ground track

The orbit data is extracted from the following two-line orbital elements,

1 20706U 90063B   18200.57872449 +.00000060 +00000-0 +00000-0 0  9996
2 20706 013.2822 026.3009 0004216 270.2140 065.8423 00.99547291094157
Epoch (UTC): 19 July 2018 13:53:21
Eccentricity: 0.0004216
inclination: 13.2822°
perigee height: 35972 km
apogee height: 36008 km
right ascension of ascending node: 26.3009°
argument of perigee: 270.2140°
revolutions per day: 0.99547291
mean anomaly at epoch: 65.8423°
orbit number at epoch: 9415

The dashed part of the orbit path shows where the satellite is in the earth's shadow,  

DLR